RDBK12 YMPC-YMPC

Flight info

Callsign RDBK12
Flight time 0h 2m
Altitude 2500
Route YMPC DCT ALTS DCT TON DCT MCOT DCT SWT DCT KIM DCT SGSV DCT DSN DCT TOGA DCT BLTB DCT WMS DCT ALOA DCT ALTS DCT YMPC
Aircraft H60/M-SDFGRY/LB1

Departure

Time 2026-05-04 03:50
Airport RAAF Williams, Point Cook Base (YMPC)

Arrival

Time 2026-05-04 03:52
Airport RAAF Williams, Point Cook Base (YMPC)
Time Latitude Longitude Altitude Speed Heading
2026-05-04 03:43 -37.93270 144.74870 25 ft 0 kts 354°
2026-05-04 03:46 -37.93266 144.74869 30 ft 1 kts
2026-05-04 03:46 -37.93271 144.74901 18 ft 8 kts 123°
2026-05-04 03:46 -37.93261 144.74976 17 ft 11 kts 128°
2026-05-04 03:46 -37.93269 144.74987 17 ft 0 kts 133°
2026-05-04 03:47 -37.93310 144.75032 19 ft 12 kts 157°
2026-05-04 03:47 -37.93409 144.74969 24 ft 28 kts 220°
2026-05-04 03:47 -37.93530 144.74811 23 ft 27 kts 233°
2026-05-04 03:48 -37.93630 144.74680 20 ft 10 kts 204°
2026-05-04 03:48 -37.93685 144.74732 25 ft 17 kts 104°
2026-05-04 03:48 -37.93687 144.74845 21 ft 16 kts 86°
2026-05-04 03:48 -37.93672 144.75058 24 ft 22 kts 85°
2026-05-04 03:49 -37.93659 144.75243 21 ft 23 kts 85°
2026-05-04 03:49 -37.93645 144.75437 21 ft 17 kts 26°
2026-05-04 03:49 -37.93500 144.75452 27 ft 42 kts
2026-05-04 03:49 -37.93105 144.75411 124 ft 66 kts 358°
2026-05-04 03:50 -37.92596 144.75361 337 ft 79 kts 358°
2026-05-04 03:50 -37.92056 144.75274 640 ft 78 kts 343°
2026-05-04 03:50 -37.91840 144.74624 675 ft 97 kts 281°
2026-05-04 03:50 -37.92022 144.73738 748 ft 120 kts 245°
2026-05-04 03:51 -37.92836 144.73330 632 ft 129 kts 192°
2026-05-04 03:51 -37.93674 144.73331 639 ft 115 kts 186°
2026-05-04 03:51 -37.94450 144.73421 757 ft 113 kts 169°
2026-05-04 03:51 -37.94881 144.74183 678 ft 106 kts 91°
2026-05-04 03:52 -37.94749 144.75093 573 ft 109 kts 49°
2026-05-04 03:52 -37.94171 144.75512 248 ft 92 kts
2026-05-04 03:52 -37.93707 144.75463 81 ft 24 kts 357°
2026-05-04 03:52 -37.93614 144.75463 28 ft 7 kts 354°
2026-05-04 03:53 -37.93588 144.75462 17 ft 0 kts 355°
2026-05-04 03:53 -37.93578 144.75461 17 ft 5 kts 354°
2026-05-04 03:54 -37.93466 144.75451 29 ft 35 kts 358°
2026-05-04 03:54 -37.93097 144.75413 104 ft 71 kts
2026-05-04 03:54 -37.92485 144.75353 225 ft 104 kts
2026-05-04 03:54 -37.91900 144.75571 602 ft 79 kts 66°
2026-05-04 03:55 -37.91816 144.76247 720 ft 99 kts 90°
2026-05-04 03:55 -37.91864 144.77344 859 ft 146 kts 95°
2026-05-04 03:55 -37.92054 144.78627 945 ft 138 kts 90°
2026-05-04 03:55 -37.92026 144.79672 987 ft 103 kts 62°
2026-05-04 03:56 -37.91625 144.80263 999 ft 90 kts 25°
2026-05-04 03:56 -37.91045 144.80728 1001 ft 103 kts 25°
2026-05-04 03:56 -37.90376 144.81255 996 ft 118 kts 25°
2026-05-04 03:56 -37.89653 144.81804 999 ft 123 kts 25°
2026-05-04 03:57 -37.88920 144.82342 994 ft 122 kts 20°
2026-05-04 03:57 -37.88153 144.82248 1010 ft 109 kts 342°
2026-05-04 03:57 -37.87604 144.81479 1008 ft 125 kts 315°
2026-05-04 03:57 -37.87077 144.80578 954 ft 135 kts 315°
2026-05-04 03:58 -37.85925 144.78593 956 ft 142 kts 311°
2026-05-04 03:58 -37.85415 144.77514 927 ft 147 kts 302°
2026-05-04 03:58 -37.85149 144.76234 825 ft 152 kts 293°
2026-05-04 03:59 -37.84903 144.74951 722 ft 150 kts 293°
2026-05-04 03:59 -37.84579 144.73724 706 ft 139 kts 304°
2026-05-04 03:59 -37.84072 144.72732 684 ft 130 kts 315°
2026-05-04 03:59 -37.83557 144.71823 740 ft 122 kts 317°
2026-05-04 04:00 -37.83037 144.71005 875 ft 117 kts 321°
2026-05-04 04:00 -37.82507 144.70240 743 ft 117 kts 321°
2026-05-04 04:00 -37.81956 144.69466 975 ft 113 kts 321°
2026-05-04 04:00 -37.81410 144.68709 899 ft 118 kts 324°
2026-05-04 04:01 -37.80860 144.67956 871 ft 118 kts 324°
2026-05-04 04:01 -37.80309 144.67208 853 ft 117 kts 323°
2026-05-04 04:01 -37.79750 144.66462 852 ft 118 kts 324°
2026-05-04 04:01 -37.79188 144.65722 852 ft 117 kts 322°
2026-05-04 04:02 -37.78624 144.64989 844 ft 117 kts 323°
2026-05-04 04:02 -37.78083 144.64303 949 ft 103 kts 325°
2026-05-04 04:02 -37.77571 144.63670 1105 ft 103 kts 326°
2026-05-04 04:02 -37.77009 144.63180 1093 ft 93 kts 340°
2026-05-04 04:03 -37.76404 144.63008 1078 ft 90 kts 355°
2026-05-04 04:03 -37.75754 144.62951 1076 ft 99 kts 358°
2026-05-04 04:03 -37.75051 144.62930 1071 ft 106 kts
2026-05-04 04:03 -37.74277 144.62956 1074 ft 118 kts
2026-05-04 04:04 -37.73432 144.62999 1072 ft 125 kts
2026-05-04 04:04 -37.72560 144.63040 1082 ft 125 kts
2026-05-04 04:04 -37.71684 144.63075 1091 ft 125 kts
2026-05-04 04:04 -37.70826 144.63164 1091 ft 124 kts
2026-05-04 04:05 -37.70012 144.63611 1091 ft 131 kts 18°
2026-05-04 04:05 -37.69176 144.64078 1093 ft 131 kts 17°
2026-05-04 04:05 -37.68317 144.64429 1087 ft 130 kts 12°
2026-05-04 04:05 -37.67444 144.64740 1089 ft 131 kts 12°
2026-05-04 04:06 -37.66574 144.65062 1099 ft 129 kts 12°
2026-05-04 04:06 -37.65705 144.65361 1098 ft 128 kts 12°
2026-05-04 04:06 -37.64837 144.65627 1095 ft 131 kts 12°
2026-05-04 04:06 -37.63958 144.65920 1092 ft 130 kts 11°
2026-05-04 04:07 -37.63090 144.66115 952 ft 122 kts
2026-05-04 04:07 -37.62258 144.66079 918 ft 120 kts 354°
2026-05-04 04:07 -37.61449 144.65923 1003 ft 115 kts 356°
2026-05-04 04:07 -37.60664 144.65960 1084 ft 113 kts
2026-05-04 04:08 -37.59865 144.66097 1255 ft 122 kts
2026-05-04 04:08 -37.59008 144.66254 1274 ft 129 kts
2026-05-04 04:08 -37.58115 144.66436 1289 ft 130 kts 12°
2026-05-04 04:08 -37.57240 144.66783 1353 ft 133 kts 18°
2026-05-04 04:09 -37.56391 144.67228 1555 ft 128 kts 24°
2026-05-04 04:09 -37.55651 144.67795 1585 ft 121 kts 28°
2026-05-04 04:09 -37.54977 144.68413 1614 ft 120 kts 33°
2026-05-04 04:09 -37.54302 144.69014 1653 ft 114 kts 30°
2026-05-04 04:10 -37.53646 144.69585 1685 ft 119 kts 28°
2026-05-04 04:10 -37.52927 144.70207 1730 ft 129 kts 28°
2026-05-04 04:10 -37.52165 144.70856 1692 ft 136 kts 27°
2026-05-04 04:10 -37.51378 144.71510 1726 ft 134 kts 27°
2026-05-04 04:11 -37.50588 144.72151 1709 ft 136 kts 27°
2026-05-04 04:11 -37.49776 144.72795 1709 ft 140 kts 28°
2026-05-04 04:11 -37.48951 144.73436 1711 ft 138 kts 26°
2026-05-04 04:11 -37.48138 144.74079 1694 ft 139 kts 30°
2026-05-04 04:12 -37.47386 144.74869 1719 ft 141 kts 40°
2026-05-04 04:12 -37.46744 144.75806 1718 ft 141 kts 42°
2026-05-04 04:12 -37.46104 144.76753 1702 ft 143 kts 45°
2026-05-04 04:12 -37.45447 144.77699 1712 ft 144 kts 41°
2026-05-04 04:13 -37.44783 144.78632 1717 ft 143 kts 42°
2026-05-04 04:13 -37.44116 144.79545 1704 ft 143 kts 40°
2026-05-04 04:13 -37.43418 144.80479 1739 ft 146 kts 40°
2026-05-04 04:13 -37.42720 144.81396 1811 ft 144 kts 40°
2026-05-04 04:14 -37.42036 144.82260 1848 ft 140 kts 39°
2026-05-04 04:14 -37.41336 144.83121 1868 ft 140 kts 37°
2026-05-04 04:14 -37.40637 144.83966 1862 ft 138 kts 36°
2026-05-04 04:14 -37.39923 144.84773 1852 ft 139 kts 35°
2026-05-04 04:15 -37.39180 144.85555 1875 ft 139 kts 33°
2026-05-04 04:15 -37.38439 144.86320 1842 ft 136 kts 33°
2026-05-04 04:15 -37.37700 144.87059 1852 ft 136 kts 32°
2026-05-04 04:15 -37.36964 144.87822 1857 ft 138 kts 33°
2026-05-04 04:16 -37.36236 144.88597 1841 ft 137 kts 33°
2026-05-04 04:16 -37.35499 144.89345 1839 ft 136 kts 30°
2026-05-04 04:16 -37.34695 144.90014 1836 ft 140 kts 27°
2026-05-04 04:16 -37.33872 144.90684 1858 ft 141 kts 27°
2026-05-04 04:17 -37.33053 144.91356 1837 ft 141 kts 27°
2026-05-04 04:17 -37.32231 144.92025 1821 ft 139 kts 27°
2026-05-04 04:17 -37.31420 144.92673 1683 ft 138 kts 27°
2026-05-04 04:17 -37.30680 144.93206 1698 ft 112 kts 24°
2026-05-04 04:18 -37.29941 144.93734 1716 ft 130 kts 33°
2026-05-04 04:18 -37.29208 144.94464 1657 ft 132 kts 61°
2026-05-04 04:18 -37.29168 144.95434 2036 ft 115 kts 147°
2026-05-04 04:18 -37.29913 144.96128 2012 ft 155 kts 161°
2026-05-04 04:19 -37.30899 144.96775 2059 ft 153 kts 159°
2026-05-04 04:19 -37.31886 144.97439 2009 ft 158 kts 159°
2026-05-04 04:19 -37.32866 144.98115 1980 ft 161 kts 156°
2026-05-04 04:19 -37.33866 144.98698 2015 ft 152 kts 156°
2026-05-04 04:20 -37.34882 144.99304 1900 ft 165 kts 153°
2026-05-04 04:20 -37.35867 144.99956 1975 ft 163 kts 153°
2026-05-04 04:20 -37.36869 145.00617 1958 ft 163 kts 149°
2026-05-04 04:20 -37.37792 145.01429 1943 ft 161 kts 140°
2026-05-04 04:21 -37.38663 145.02299 1945 ft 162 kts 139°
2026-05-04 04:21 -37.39249 145.02878 1953 ft 155 kts 139°
2026-05-04 04:21 -37.40122 145.03738 1957 ft 161 kts 139°
2026-05-04 04:21 -37.41025 145.04601 1957 ft 164 kts 139°
2026-05-04 04:22 -37.41948 145.05470 1949 ft 167 kts 139°
2026-05-04 04:22 -37.42875 145.06323 1955 ft 165 kts 139°
2026-05-04 04:22 -37.43802 145.07184 1953 ft 162 kts 139°
2026-05-04 04:22 -37.44706 145.08034 1948 ft 166 kts 140°
2026-05-04 04:23 -37.45639 145.08912 1949 ft 165 kts 140°
2026-05-04 04:23 -37.46550 145.09743 1951 ft 161 kts 139°
2026-05-04 04:23 -37.47470 145.10550 1951 ft 164 kts 139°
2026-05-04 04:23 -37.48398 145.11372 1949 ft 164 kts 139°
2026-05-04 04:24 -37.49349 145.12232 1946 ft 169 kts 140°
2026-05-04 04:24 -37.50267 145.13101 1942 ft 163 kts 140°
2026-05-04 04:24 -37.51179 145.13958 1943 ft 161 kts 139°
2026-05-04 04:24 -37.52110 145.14786 1940 ft 168 kts 139°
2026-05-04 04:25 -37.53076 145.15623 1950 ft 169 kts 140°
2026-05-04 04:25 -37.54028 145.16461 1953 ft 169 kts 140°
2026-05-04 04:25 -37.54945 145.17317 1948 ft 162 kts 140°
2026-05-04 04:25 -37.55883 145.18173 1945 ft 168 kts 140°
2026-05-04 04:26 -37.56816 145.19032 1945 ft 164 kts 140°
2026-05-04 04:26 -37.57737 145.19887 1943 ft 164 kts 140°
2026-05-04 04:26 -37.58648 145.20758 1941 ft 164 kts 140°
2026-05-04 04:26 -37.59554 145.21615 1945 ft 167 kts 140°
2026-05-04 04:27 -37.60508 145.22493 1943 ft 169 kts 140°
2026-05-04 04:27 -37.61434 145.23352 1948 ft 168 kts 140°
2026-05-04 04:27 -37.62376 145.24221 1947 ft 163 kts 140°
2026-05-04 04:27 -37.63294 145.25086 1952 ft 166 kts 140°
2026-05-04 04:28 -37.64231 145.25962 1954 ft 167 kts 140°
2026-05-04 04:28 -37.65143 145.26817 1943 ft 158 kts 140°
2026-05-04 04:28 -37.66048 145.27639 1942 ft 162 kts 141°
2026-05-04 04:28 -37.67093 145.28213 1932 ft 167 kts 168°
2026-05-04 04:29 -37.68218 145.28045 1937 ft 162 kts 209°
2026-05-04 04:29 -37.69052 145.27183 1950 ft 151 kts 243°
2026-05-04 04:29 -37.69688 145.26218 1938 ft 146 kts 242°
2026-05-04 04:29 -37.70332 145.25285 1736 ft 141 kts 242°
2026-05-04 04:30 -37.70953 145.24337 1567 ft 142 kts 242°
2026-05-04 04:30 -37.71543 145.23389 1438 ft 136 kts 242°
2026-05-04 04:30 -37.72159 145.22423 1447 ft 144 kts 242°
2026-05-04 04:30 -37.72802 145.21434 1464 ft 147 kts 242°
2026-05-04 04:31 -37.73425 145.20453 1476 ft 142 kts 242°
2026-05-04 04:31 -37.74064 145.19499 1472 ft 142 kts 242°
2026-05-04 04:31 -37.74695 145.18523 1475 ft 143 kts 242°
2026-05-04 04:31 -37.75322 145.17540 1474 ft 145 kts 242°
2026-05-04 04:32 -37.75940 145.16533 1465 ft 146 kts 242°
2026-05-04 04:32 -37.76575 145.15551 1469 ft 144 kts 242°
2026-05-04 04:32 -37.77203 145.14559 1462 ft 145 kts 242°
2026-05-04 04:32 -37.77918 145.13634 1464 ft 150 kts 231°
2026-05-04 04:33 -37.78775 145.12854 1463 ft 153 kts 224°
2026-05-04 04:33 -37.79655 145.12106 1465 ft 153 kts 224°
2026-05-04 04:33 -37.80530 145.11365 1182 ft 147 kts 225°
2026-05-04 04:33 -37.81314 145.10564 979 ft 145 kts 229°
2026-05-04 04:34 -37.82105 145.09736 994 ft 150 kts 229°
2026-05-04 04:34 -37.82904 145.08903 997 ft 142 kts 229°
2026-05-04 04:34 -37.83662 145.08069 984 ft 144 kts 233°
2026-05-04 04:34 -37.84306 145.07104 824 ft 141 kts 245°
2026-05-04 04:35 -37.84631 145.05952 678 ft 138 kts 268°
2026-05-04 04:35 -37.84795 145.04907 642 ft 104 kts 291°
2026-05-04 04:35 -37.84457 145.04237 423 ft 88 kts 330°
2026-05-04 04:35 -37.83949 145.03845 340 ft 84 kts 328°
2026-05-04 04:36 -37.83732 145.03135 272 ft 100 kts 279°
2026-05-04 04:36 -37.83464 145.02430 354 ft 89 kts 321°
2026-05-04 04:36 -37.83087 145.01676 180 ft 121 kts 288°
2026-05-04 04:36 -37.83239 145.00550 146 ft 145 kts 266°
2026-05-04 04:37 -37.82372 144.97771 119 ft 102 kts 330°
2026-05-04 04:37 -37.81914 144.97145 140 ft 107 kts 277°
2026-05-04 04:38 -37.82083 144.96056 97 ft 144 kts 246°
2026-05-04 04:38 -37.82365 144.94918 168 ft 138 kts 290°
2026-05-04 04:38 -37.82114 144.93648 67 ft 158 kts 293°
2026-05-04 04:38 -37.81937 144.92331 75 ft 152 kts 279°
2026-05-04 04:39 -37.82135 144.91006 89 ft 157 kts 256°
2026-05-04 04:39 -37.82885 144.89961 96 ft 169 kts 211°
2026-05-04 04:39 -37.84038 144.89770 122 ft 172 kts 160°
2026-05-04 04:39 -37.85082 144.90408 130 ft 164 kts 141°
2026-05-04 04:40 -37.85999 144.91265 358 ft 157 kts 155°
2026-05-04 04:40 -37.86921 144.91457 585 ft 122 kts 218°
2026-05-04 04:40 -37.87546 144.90774 622 ft 127 kts 249°
2026-05-04 04:40 -37.87819 144.89648 350 ft 143 kts 275°
2026-05-04 04:41 -37.87766 144.88370 281 ft 143 kts 303°
2026-05-04 04:41 -37.87206 144.87538 221 ft 117 kts 351°
2026-05-04 04:41 -37.86440 144.87073 207 ft 125 kts 320°
2026-05-04 04:41 -37.86222 144.86037 592 ft 141 kts 238°
2026-05-04 04:42 -37.86867 144.84890 784 ft 174 kts 229°
2026-05-04 04:42 -37.87705 144.83817 834 ft 171 kts 229°
2026-05-04 04:42 -37.88618 144.82858 834 ft 170 kts 225°
2026-05-04 04:42 -37.89564 144.81934 798 ft 171 kts 225°
2026-05-04 04:43 -37.90481 144.81017 801 ft 164 kts 225°
2026-05-04 04:43 -37.91377 144.80160 806 ft 159 kts 225°
2026-05-04 04:43 -37.92259 144.79335 802 ft 157 kts 225°
2026-05-04 04:43 -37.93023 144.78378 814 ft 155 kts 239°
2026-05-04 04:44 -37.93814 144.77418 726 ft 160 kts 213°
2026-05-04 04:44 -37.94734 144.76690 674 ft 154 kts 209°
2026-05-04 04:44 -37.95617 144.75946 512 ft 145 kts 236°
2026-05-04 04:44 -37.95725 144.75009 544 ft 98 kts 308°
2026-05-04 04:45 -37.95386 144.74171 586 ft 117 kts 304°
2026-05-04 04:45 -37.95000 144.73145 592 ft 136 kts 300°
2026-05-04 04:45 -37.95033 144.72093 531 ft 141 kts 237°
2026-05-04 04:47 -37.95161 144.75607 578 ft 70 kts 358°
2026-05-04 04:47 -37.94742 144.75600 505 ft 55 kts 356°
2026-05-04 04:47 -37.94356 144.75554 370 ft 52 kts 354°
2026-05-04 04:47 -37.93981 144.75505 225 ft 43 kts 354°
2026-05-04 04:48 -37.93826 144.75492 108 ft 17 kts 354°
2026-05-04 04:49 -37.93536 144.75458 37 ft 24 kts 354°
2026-05-04 04:49 -37.93252 144.75429 146 ft 56 kts 356°
2026-05-04 04:49 -37.92806 144.75390 372 ft 60 kts 359°
2026-05-04 04:49 -37.92440 144.75371 568 ft 44 kts 358°
2026-05-04 04:50 -37.92165 144.75367 734 ft 39 kts 355°
2026-05-04 04:50 -37.91971 144.75163 631 ft 53 kts 320°
2026-05-04 04:50 -37.92020 144.74597 817 ft 73 kts 249°
2026-05-04 04:50 -37.92393 144.74187 729 ft 75 kts 198°
2026-05-04 04:51 -37.92907 144.74098 824 ft 73 kts 174°
2026-05-04 04:51 -37.93407 144.74088 806 ft 72 kts 174°
2026-05-04 04:51 -37.93960 144.74125 831 ft 90 kts 171°
2026-05-04 04:51 -37.94439 144.74653 766 ft 94 kts 97°
2026-05-04 04:52 -37.94371 144.75344 570 ft 75 kts 34°
2026-05-04 04:52 -37.93986 144.75488 305 ft 43 kts 358°
2026-05-04 04:52 -37.93731 144.75477 109 ft 35 kts 358°
2026-05-04 04:52 -37.93584 144.75462 22 ft 5 kts 358°
2026-05-04 04:53 -37.93498 144.75455 35 ft 24 kts 359°
2026-05-04 04:53 -37.93312 144.75434 60 ft 24 kts 359°
2026-05-04 04:53 -37.93182 144.75427 33 ft 17 kts 359°
2026-05-04 04:53 -37.93176 144.75302 34 ft 31 kts 244°
2026-05-04 04:54 -37.93290 144.75142 31 ft 20 kts 245°
2026-05-04 04:54 -37.93307 144.75039 32 ft 7 kts 309°
2026-05-04 04:54 -37.93268 144.74989 25 ft 6 kts 326°
2026-05-04 04:54 -37.93265 144.74985 18 ft 0 kts 321°
2026-05-04 04:55 -37.93265 144.74986 18 ft 0 kts 320°
2026-05-04 04:55 -37.93265 144.74985 18 ft 0 kts 319°
2026-05-04 04:55 -37.93264 144.74985 18 ft 2 kts 316°
2026-05-04 04:55 -37.93262 144.74949 19 ft 6 kts 231°
2026-05-04 04:56 -37.93272 144.74905 19 ft 7 kts 308°
2026-05-04 04:56 -37.93264 144.74859 20 ft 7 kts 180°
2026-05-04 04:56 -37.93271 144.74860 20 ft 0 kts 145°